SCP
-0 -0 -0 0 0 0 0 0 0 0 0 0 0 0 0 0 0 0 0 0 0 0 0 0 0 0 0 0 0 0 0 0 0 0 0 0 0 0 0 0 0 0 0
0 0 0 0 0 0 0 0 0 0 0 0 0 0 0 0 0 0 0 0 0 0 0 0 0 0 0 0 0 0 0 0 0 0 0 0 0 0 0 0 0 0 0
0 0 0 0 0 0 0 0 0 0 0 0 0 0 0 0 0 0 0 0 0 0 0 0 0 0 0 0 0 0 0 0 0 0 0 0 0 0 0 0 0 0 0
0 0 0 0 0 0 0 0 0 0 0 0 0 0 0 0 0 0 0 0 0 0 0 0 0 0 0 0 0 0 0 0 0 0 0 0 0 0 0 0 0 0 0
0 0 0 0 0 0 0 0 0 0 0 0 0 0 0 0 0 0 0 0 0 0 0 0 0 0 0 0 0 0 0 0 0 0 0 0 0 0 0 0 0 0 0
0 0 0 0 0 0 0 0 0 0 0 0 0 0 0 0 0 0 0 0 0 0 0 0 0 0 0 0 0 0 0 0 0 0 0 0 0 0 0 0 0 0 0
0 0 0 0 0 0 0 0 0 0 0 0 0 0 0 0 0 0 0 0 0 0 0 0 0 0 0 0 0 0 0 0 0 0 0 0 0 0 0 0 0 0 0
0 0 0 0 0 0 0 0 0 0 0 0 0 0 0 0 0 0 0 0 0 0 0 0 0 0 0 0 0 0 0 0 0 0 0 0 0 0 0 0 0 0 0
0 0 0 0 0 0 0 0 0 0 0 0 0 0 0 0 0 0 0 0 0 0 0 0 0 0 0 0 0 0 0 0 0 0 0 0 0 0 0 0 0 0 0
0 0 0 0 0 0 0 0 0 0 0 0 0 0 0 0 0 0 0 0 0 0 0 0 0 0 0 0 0 0 0 0 0 0 0 0 0 0 0 0 0 0 0
0 0 0 0 0 0 0 0 0 0 0 0 0 0 0 0 0 0 0 0 0 0 0 0 0 0 0 0 0 0 0 0 0 0 0 0 0 0 0 0 0 0 0
0 0 0 0 0 0 0 0 0 0 0 0 0 0 0 0 0 0 0 0 0 0 0 0 0 0 0 0 0 0 0 0 0 0 0 0 0 0 0 0 0 0 0
0 0 0 0 0 0 0 0 0 0 0 0 0 0 0 0 0 0 0 0 0 0 0 0 0 0 0 0 0 0 0 0 0 0 0 0 0 0 0 0 0 0 0
0 0 0 0 0 0 0 0 0 0 0 0 0 0 0 0 0 0 0 0 0 0 0 0 0 0 0 0 0 0 0 0 0 0 0 0 0 0 0 0 0 0 0
0 0 0 0 0 0 0 0 0 0 0 0 0 0 0 0 0 0 0 0 0 0 0 0 0 0 0 0 0 0 0 0 0 0 0 0 0 0 0 0 0 0 0
0 0 0 0 0 0 0 0 0 0 0 0 0 0 0 0 0 0 0 0 0 0 0 0 0 0 0 0 0 0 0 0 0 0 0 0 0 0 0 0 0 0 0
0 0 0 0 0 0 0 0 0 0 0 0 0 0 0 0 0 0 0 0 0 0 0 0 0 0 0 0 0 0 0 0 0 0 0 0 0 0 0 0 0 0 0
0 0 0 0 0 0 0 0 0 0 0 0 0 0 0 0 0 0 0 0 0 0 0 0 0 0 0 0 0 0 0 0 0 0 0 0 0 0 0 0 0 0 0
0 0 0 0 0 0 0 0 0 0 0 0 0 0 0 0 0 0 0 0 0 0 0 0 0 0 0 0 0 0 0 0 0 0 0 0 0 0 0 0 0 0 0
0 0 0 0 0 0 0 0 0 0 0 0 0 0 0 0 0 0 0 0 0 0 0 0 0 0 0 0 0 0 0 0 0 0 0 0 0 0 0 0 0 0 0
0 0 0 0 0 0 0 0 0 0 0 0 0 0 0 0 0 0 0 0 0 0 0 0 0 0 0 0 0 0 0 0 0 0 0 0 0 0 0 0 0 0 0
0 0 0 0 0 0 0 0 0 0 0 0 0 0 0 0 0 0 0 0 0 0 0 0 0 0 0 0 0 0 0 0 0 0 0 0 0 0 0 0 0 0 0
0 0 0 0 0 0 0 0 0 0 0 0 0 0 0 0 0 0 0 0 0 0 0 0 0 0 0 0 0 0 0 0 0 0 0 0 0 0 0 0 0 0 0
0 0 0 0 0 0 0 0 0 0 0 0 0 0 0 0 0 0 0 0 0 0 0 0 0 0 0 0 0 0 0 0 0 0 0 0 0 0 0 0 0 0 0
0 0 0 0 0 0 0 0 0 0 0 0 0 0 0 0 0 0 0 0 0 0 0 0 0 0 0 0 0 0 0 0 0 0 0 0 0 0 0 0 0 0 0
0 0 0 0 0 0 0 0 0 0 0 0 0 0 0 0 0 0 0 0 0 0 0 0 0 0 0 0 0 0 0 0 0 0 0 0 0 0 0 0 0 0 0
Wind_Speed
15 14 14 13 13 12 10 11 11 12 13 14 14 15 16 17 18 18 19 18 20 19 17 18 19 16 12 10 9 9 8 7 6 5 5 7 12 11 9 7 6 6 6
14 13 13 13 13 13 12 12 12 12 12 13 14 15 16 17 18 19 20 20 21 21 20 20 20 15 17 13 11 12 10 9 8 7 6 7 9 11 9 8 6 5 6
13 13 13 14 14 14 14 13 12 12 12 12 13 15 16 17 18 19 20 20 21 21 21 21 21 19 20 15 15 13 11 9 8 7 7 5 5 7 9 7 8 7 7
12 12 13 13 14 14 14 14 13 12 12 12 12 14 16 16 17 17 18 20 21 21 20 20 21 22 22 20 16 16 13 12 10 9 7 6 5 7 7 7 7 7 6
11 12 12 13 13 13 14 14 14 13 12 12 12 13 14 14 14 17 18 19 20 20 20 20 21 21 22 20 16 17 16 14 12 11 9 7 8 8 9 8 7 5 5
11 11 12 12 13 13 14 14 14 14 13 12 12 12 14 12 17 24 21 18 19 20 20 20 19 20 21 28 28 26 25 20 18 15 12 11 12 10 9 8 7 5 4
11 11 11 11 12 13 14 15 15 15 15 14 14 13 15 17 22 25 26 20 19 20 21 19 16 15 19 21 26 29 27 28 26 18 17 14 13 13 13 12 9 6 4
11 11 11 12 13 14 15 15 15 15 14 15 15 15 15 16 22 24 24 22 21 21 21 20 19 18 19 21 19 20 20 21 22 16 12 11 9 12 12 11 9 6 4
12 12 12 12 13 15 16 17 16 15 16 15 15 15 16 17 21 23 24 15 17 21 19 19 19 19 24 29 21 21 20 18 22 20 14 13 16 17 14 10 9 7 5
13 13 13 13 12 15 17 18 17 16 17 17 17 16 17 18 21 23 24 14 16 16 15 16 18 19 24 30 23 21 21 18 16 17 16 17 16 17 19 12 10 9 5
13 14 15 14 14 16 17 17 17 17 18 18 19 18 17 18 21 24 25 15 15 15 14 13 14 26 28 31 28 19 21 17 17 17 15 14 13 11 12 11 10 8 8
15 16 16 16 16 15 17 18 17 17 18 19 18 18 15 14 16 20 26 27 23 17 14 12 13 24 28 30 27 23 26 21 13 14 14 13 13 12 10 10 10 8 7
15 16 17 19 18 17 17 18 17 16 15 15 15 16 15 12 13 21 24 27 28 19 13 17 19 24 27 25 29 29 22 15 14 14 14 13 12 11 11 9 9 7 6
18 20 19 19 19 18 15 15 15 14 15 15 15 15 15 13 12 10 10 13 18 19 15 15 22 24 22 19 18 21 15 13 13 13 12 11 11 11 10 9 9 8 6
21 20 20 18 18 17 16 15 17 16 17 18 16 15 16 15 15 17 12 10 10 12 10 9 10 11 14 13 13 13 13 13 12 11 11 12 11 10 9 9 8 8 6
20 18 16 15 15 15 16 17 24 27 31 34 34 30 23 27 30 29 26 25 23 21 13 11 12 13 14 14 14 13 13 13 12 11 11 11 11 11 10 9 8 7 6
19 19 16 15 15 16 16 17 17 19 26 30 32 33 33 32 33 31 27 25 24 23 14 12 13 13 13 13 12 11 11 12 11 11 11 10 10 10 10 9 8 7 6
19 19 18 15 15 15 16 16 16 16 16 15 19 26 29 29 29 27 25 20 15 15 11 11 11 11 11 11 11 11 11 11 11 10 10 10 10 10 9 8 7 7 6
18 15 14 15 15 16 16 16 15 17 16 15 14 16 20 22 23 22 20 13 11 10 9 10 10 10 9 10 10 10 11 10 11 10 10 10 9 9 8 7 7 7 6
15 19 19 15 15 15 15 15 14 14 14 13 13 13 11 11 9 9 9 9 8 7 7 8 9 9 10 10 10 10 10 10 11 10 10 9 8 8 8 8 6 6 5
14 15 19 16 14 14 14 13 13 12 12 11 11 13 16 10 7 6 4 5 5 5 7 9 9 11 10 10 10 11 11 10 9 10 9 9 8 7 6 6 6 5 4
13 13 13 13 13 12 12 11 10 9 9 10 9 9 12 6 3 1 3 5 7 7 9 10 10 9 9 10 11 11 11 10 10 10 9 9 7 7 6 5 5 5 5
12 13 12 12 11 13 11 9 8 7 6 6 5 4 5 5 6 6 7 8 8 9 8 9 10 9 9 8 8 9 10 10 9 10 10 9 7 7 6 6 6 5 5
11 12 11 11 10 10 10 9 9 8 8 8 7 7 7 7 7 8 8 8 8 8 8 8 9 12 14 10 8 7 8 9 9 8 10 9 8 6 5 5 5 6 6
10 10 10 9 9 9 9 9 9 9 9 8 8 7 7 7 8 8 8 8 10 10 10 10 9 10 13 13 10 9 11 12 10 7 7 6 7 6 5 5 5 5 6
10 10 9 8 8 9 9 9 9 9 8 8 8 8 8 8 8 8 8 8 8 9 9 8 10 11 12 10 11 11 10 10 10 9 6 5 6 5 6 5 7 7 8
Wind_Direction
8 5 5 5 360 351 336 318 301 285 271 255 243 233 228 225 222 222 222 221 218 217 214 212 211 205 202 199 193 190 193 196 186 153 163 166 179 187 190 208 228 243 244
360 358 359 359 358 355 348 336 321 303 286 268 254 244 235 228 224 224 225 225 221 220 217 214 213 205 207 201 196 195 193 191 185 168 166 171 186 193 198 210 222 238 245
354 354 354 354 353 349 345 339 330 317 300 283 264 253 244 236 230 227 227 228 226 224 220 216 213 206 207 202 198 195 191 185 185 168 161 163 175 187 198 212 224 231 236
347 347 348 348 345 341 337 335 331 323 311 296 276 262 254 245 237 232 230 231 231 228 225 220 215 210 207 201 199 196 185 182 182 178 167 166 170 172 188 199 205 212 222
338 339 339 337 336 334 333 332 328 322 313 302 287 273 261 252 243 238 234 233 233 231 228 224 220 216 212 203 198 193 185 184 182 186 185 176 181 174 192 186 196 196 223
325 325 327 328 329 329 328 326 323 321 317 308 294 281 269 256 247 241 238 235 234 233 231 227 222 216 211 209 207 199 193 188 186 186 190 195 194 186 172 172 173 183 212
310 312 316 320 320 320 321 320 319 318 314 307 298 288 278 268 258 249 241 237 236 234 232 228 222 218 210 211 211 208 206 207 198 190 191 194 184 181 172 174 177 181 185
299 301 307 313 313 315 315 312 312 310 307 303 297 290 281 273 265 257 248 239 239 237 234 229 225 218 210 206 203 205 205 208 206 201 200 190 178 168 169 166 164 177 215
290 294 301 306 307 308 307 306 307 305 300 297 292 287 280 275 267 260 252 243 241 239 234 230 226 222 213 206 202 203 202 205 205 196 191 176 166 161 158 150 159 168 197
290 293 297 297 297 298 299 300 299 296 292 292 288 283 277 274 268 260 251 243 242 239 232 226 222 219 213 206 203 201 201 196 185 183 183 178 172 171 173 173 170 176 177
296 294 293 294 295 294 293 291 292 291 289 286 283 279 273 268 266 260 250 239 239 239 232 224 220 217 214 210 206 206 204 186 182 180 179 179 177 177 181 180 178 181 185
298 295 295 295 293 290 288 287 285 284 282 281 279 278 271 264 257 256 250 243 238 237 233 222 213 212 212 211 210 207 202 186 181 181 179 178 176 174 173 172 174 184 198
302 296 294 292 289 285 282 281 281 277 273 275 276 276 276 269 261 256 252 249 245 240 233 218 205 205 209 212 212 204 196 187 181 183 182 179 174 165 158 156 159 172 197
299 296 295 293 289 285 280 275 273 271 271 272 273 274 276 273 265 256 249 249 247 244 236 214 204 203 205 204 205 201 193 188 185 184 177 164 153 152 154 152 157 166 184
297 295 294 290 288 286 280 273 273 266 265 269 272 274 276 274 269 262 250 243 238 236 212 188 186 188 197 197 195 189 185 180 181 177 163 154 153 152 151 151 155 162 177
296 295 293 290 287 284 283 281 275 272 274 272 269 268 268 267 271 268 260 251 246 239 209 189 188 188 192 191 189 183 178 177 172 165 160 157 154 153 149 152 158 169 180
292 292 290 287 284 282 281 282 284 283 278 277 276 274 271 269 267 262 254 248 244 235 216 199 194 190 189 186 180 172 169 165 160 160 158 154 150 148 150 155 162 170 180
291 288 285 282 281 279 277 277 277 281 284 281 279 278 277 275 273 262 246 238 236 228 214 200 194 189 183 175 168 163 158 155 154 153 150 147 147 147 150 156 162 168 175
292 287 285 283 280 277 275 273 272 272 274 278 280 281 278 278 277 268 242 223 219 218 209 191 184 178 167 158 155 153 151 152 151 147 144 143 143 144 148 154 157 165 177
292 290 291 288 284 281 277 273 270 269 270 272 274 278 281 279 274 263 228 204 204 207 192 170 159 146 139 138 140 142 145 146 146 141 139 139 140 145 150 156 162 170 183
298 297 296 294 289 287 284 279 273 268 268 271 273 277 279 276 274 271 233 179 173 160 144 135 130 129 128 131 136 143 145 145 144 139 138 138 141 145 151 157 165 179 194
302 302 302 302 301 300 299 294 287 279 275 276 281 290 298 295 293 41 72 87 95 104 116 122 123 126 133 139 143 145 146 145 143 139 137 138 143 147 152 160 173 188 203
310 310 311 312 314 318 323 330 331 327 324 327 335 352 14 36 54 68 77 84 92 99 105 113 118 119 120 125 134 141 144 145 144 143 141 144 148 154 161 172 183 196 214
318 319 322 326 332 341 349 355 360 7 13 18 24 29 35 45 55 63 68 75 83 89 93 100 109 120 121 115 110 109 111 118 124 134 140 145 150 154 163 178 196 210 226
329 331 335 340 346 352 356 2 8 13 19 24 29 35 41 50 57 61 65 72 80 84 89 94 102 110 114 111 108 106 114 115 115 119 127 137 150 160 173 191 206 219 230
341 343 346 349 354 358 1 4 10 14 20 26 32 38 45 53 59 63 67 73 80 81 81 83 92 100 103 101 109 115 121 129 134 139 140 149 163 177 186 206 220 229 242